Flag for Norway Weather past 2 weeks in Lillestrøm, Norway

Now
45 °F

Quite cool.


Feels Like: 42 °F
Forecast: 42 / 59 °F
Wind: 5 mph from East

Location: Oslo-Blindern

Current Time: May 30, 2015 at 1:25:58 PM

Latest Report: May 30, 2015 at 12:00 PM


Visibility: N/A

Pressure: 29.50 "Hg

Humidity: 84%

Dew point: 40 °F

Location of LillestrømLocation

Historic Weather in Lillestrøm — Graph

°F

Lillestrøm temperature yesterday

Maximum temperature yesterday: 58 °F (at 4:00 PM)
Minimum temperature yesterday: 42 °F (at 4:00 AM)
Average temperature yesterday: 51 °F

Past Weeks' High & Low Weather Summary

 TemperatureHumidityPressure
High64 °F (May 27, 6:00 PM)98% (May 17, 12:00 AM)30.03 "Hg (May 17, 12:00 AM)
Low39 °F (May 18, 6:00 AM)25% (May 15, 4:00 PM)29.38 "Hg (May 29, 12:00 AM)
Average50 °F69%29.75 "Hg
* Reported May 15 12:00 Noon — May 30 12:00 Noon, Lillestrøm, Weather by CustomWeather, © 2015

Note: Actual official high and low records may vary slightly from our data, if they occured in-between our weather recording intervals... More about our weather records

Advertising

Lillestrøm weather history for previous 24 hours

 ConditionsComfort  
Time TempWeatherWind HumidityBarometerVisibility
12:00 PM
Sat, May 30
45 °FQuite cool.5 mph84%29.50 "HgN/A
11:00 AM45 °FRain. Overcast.1 mph92%29.53 "Hg9 mi
10:00 AM45 °FQuite cool.5 mph86%29.54 "HgN/A
9:00 AM45 °FQuite cool.3 mph86%29.54 "HgN/A
8:00 AM45 °FRain. Overcast.5 mph89%29.56 "Hg9 mi
7:00 AM45 °FQuite cool.3 mph92%29.56 "HgN/A
6:00 AM45 °FQuite cool.3 mph89%29.57 "HgN/A
4:00 AM45 °FCool.2 mph91%29.59 "HgN/A
3:00 AM46 °FCool.2 mph88%29.60 "HgN/A
2:00 AM46 °FLight rain. Overcast.2 mph87%29.61 "Hg12 mi
1:00 AM47 °FCool.2 mph82%29.62 "HgN/A
12:00 AM47 °FCool.3 mph82%29.63 "HgN/A
10:00 PM
Fri, May 29
49 °FCool.6 mph76%29.62 "HgN/A
9:00 PM50 °FCool.6 mph69%29.60 "HgN/A
8:00 PM52 °FScattered clouds.7 mph62%29.59 "Hg37 mi
7:00 PM54 °FCool.6 mph60%29.58 "HgN/A
6:00 PM54 °FCool.5 mph60%29.57 "HgN/A
5:00 PM57 °FPartly sunny.6 mph46%29.56 "Hg37 mi
4:00 PM58 °FRefreshingly cool.8 mph51%29.54 "HgN/A
3:00 PM57 °FRefreshingly cool.7 mph52%29.54 "HgN/A
2:00 PM57 °FScattered clouds.7 mph46%29.54 "Hg43 mi
1:00 PM58 °FRefreshingly cool.8 mph42%29.53 "HgN/A
Weather by CustomWeather, © 2015

See weather overviewHow to use our weather pages